Location: Newark
(47.5833°N, 8.1500°E)
Time: 03:02:18
(UTC+00:00)

Vanguard 1 - Pass Details

Date: 05 November 2020
Orbit: 650 x 3833 km, 34.2° (Epoch: 26 November)

Event Time Altitude Azimuth Distance (km) Brightness Sun altitude
Rises 12:00:21 0° 251° (WSW) 6,961 14.8 25.6°
Reaches altitude 10° 12:04:37 10° 248° (WSW) 6,246 14.8 25.4°
Maximum altitude 12:25:30 57° 178° (S) 4,263 14.3 24.4°
Drops below altitude 10° 12:46:20 10° 107° (ESE) 6,238 14.1 23.0°
Sets 12:50:35 0° 104° (ESE) 6,952 14.3 22.7°
